Regional Weather Roundup
Issued by NWS

Home | Current Version | Previous Version | Text Only | Print | Product List | Glossary Off
Versions: 1 2 3 4 5 6 7 8 9 10 11 12 13 14 15 16 17 18 19 20 21 22 23 24 25 26 27 28 29 30 31 32 33 34 35 36 37 38 39 40 41 42 43 44 45 46 47 48 49 50

000
ASUS43 KTOP 162008
RWRKS

WEATHER ROUNDUP FOR KANSAS
NATIONAL WEATHER SERVICE GOODLAND KS
300 PM CDT TUE SEP 16 2014

NOTE:  "FAIR" INDICATES FEW OR NO CLOUDS BELOW 12,000 FEET WITH NO
SIGNIFICANT WEATHER AND/OR OBSTRUCTIONS TO VISIBILITY.

KSZ001>006-013>018-027>032-041>047-162100-
NORTHWEST KANSAS

CITY           SKY/WX    TMP DP  RH WIND       PRES   REMARKS
GOODLAND       SUNNY     81  56  42 S14       30.05F
HAYS           CLOUDY    72  57  60 S14       30.07F
HILL CITY      CLOUDY    70  57  63 S14G21    30.07F
RUSSELL        MOSUNNY   71  57  61 S10       30.07F
$$

KSZ061>065-074>080-084>089-162100-
SOUTHWEST KANSAS

CITY           SKY/WX    TMP DP  RH WIND       PRES   REMARKS
DODGE CITY     SUNNY     80  59  48 S18G26    30.07F
ELKHART          N/A     83  59  44 S13         N/A
GARDEN CITY    SUNNY     81  60  48 S13G24    30.06F
GREAT BEND     MOSUNNY   75  59  57 S13G18    30.08F
LIBERAL        SUNNY     82  61  47 SW20      30.11F
PRATT          SUNNY     77  57  50 S12G17    30.09F
$$

KSZ066>073-081>083-090>101-162100-
SOUTHEAST KANSAS

CITY           SKY/WX    TMP DP  RH WIND       PRES   REMARKS
CHANUTE        MOSUNNY   75  61  61 SE8       30.11F
COFFEYVILLE    CLOUDY    71  61  70 VRB3      30.11F
HUTCHINSON     SUNNY     75  57  53 S7        30.10F
MEDICINE LODGE   N/A     77  61  57 S6        30.08F
NEWTON         SUNNY     75  57  53 S7        30.12F
PARSONS        PTSUNNY   75  63  66 CALM      30.12F
WICHITA INTL   MOSUNNY   78  59  51 VRB6      30.09F
WICHITA JABRA  MOSUNNY   74  58  57 CALM      30.10F
WICHITA MCCONL MOSUNNY   77  57  50 SE7       30.10F
WINFIELD       SUNNY     76  63  64 S5        30.11F
$$

KSZ007>012-019>026-033>040-048>060-102>105-162100-
NORTHEAST KANSAS

CITY           SKY/WX    TMP DP  RH WIND       PRES   REMARKS
CONCORDIA      CLOUDY    67  50  54 S9        30.09F
EMPORIA        SUNNY     73  48  41 S3        30.11F
LAWRENCE       SUNNY     71  51  49 VRB6      30.12F
MANHATTAN      CLOUDY    74  48  39 S8        30.10F
MARYSVILLE     SUNNY     70  50  49 S6        30.09F
OLATHE IND     SUNNY     71  51  49 SW3       30.13F
OLATHE EXE     SUNNY     70  53  54 VRB3      30.12F
SALINA         MOSUNNY   73  51  46 SE8       30.10F
TOPEKA BILLARD SUNNY     72  51  47 SW7       30.12F
TOPEKA FORBES  SUNNY     71  51  49 SE6       30.12F
$$


USA.gov is the U.S. government's official web portal to all federal, state and local government web resources and services.